Time,TemperatureF,DewpointF,PressureIn,WindDirection,WindDirectionDegrees,WindSpeedMPH,WindSpeedGustMPH,Humidity,HourlyPrecipIn,Conditions,Clouds,dailyrainin,SolarRadiationWatts/m^2,SoftwareType,DateUTC
2013-02-09 00:21:00,36.0,22.0,-100.00,SSE,156,8.0,24.0,56,0.00,,,0.05,0.000000,,2013-02-09 09:21:00,
2013-02-09 00:31:00,36.0,22.0,-100.00,SSE,156,8.0,24.0,56,0.00,,,0.05,0.000000,,2013-02-09 09:31:00,
2013-02-09 00:41:00,36.0,22.0,-100.00,SSE,156,8.0,24.0,56,0.00,,,0.05,0.000000,,2013-02-09 09:41:00,
2013-02-09 00:51:00,36.0,22.0,-100.00,SSE,156,8.0,24.0,56,0.00,,,0.05,0.000000,,2013-02-09 09:51:00,
2013-02-09 01:21:00,36.0,21.0,-100.00,SSW,209,6.0,18.0,55,0.02,,,0.07,0.000000,,2013-02-09 10:21:00,
2013-02-09 01:31:00,36.0,21.0,-100.00,SSW,209,6.0,18.0,55,0.02,,,0.07,0.000000,,2013-02-09 10:31:00,
2013-02-09 01:41:00,36.0,21.0,-100.00,SSW,209,6.0,18.0,55,0.02,,,0.07,0.000000,,2013-02-09 10:41:00,
2013-02-09 01:51:00,36.0,21.0,-100.00,SSW,209,6.0,18.0,55,0.02,,,0.07,0.000000,,2013-02-09 10:51:00,
2013-02-09 02:21:00,36.0,22.0,-100.00,SSE,165,10.0,24.0,56,0.02,,,0.09,0.000000,,2013-02-09 11:21:00,
2013-02-09 02:31:00,36.0,22.0,-100.00,SSE,165,10.0,24.0,56,0.02,,,0.09,0.000000,,2013-02-09 11:31:00,
2013-02-09 02:41:00,36.0,22.0,-100.00,SSE,165,10.0,24.0,56,0.02,,,0.09,0.000000,,2013-02-09 11:41:00,
2013-02-09 02:52:00,36.0,22.0,-100.00,SSE,165,10.0,24.0,56,0.02,,,0.09,0.000000,,2013-02-09 11:52:00,
2013-02-09 03:21:00,28.0,22.0,-100.00,NNE,13,5.0,16.0,77,-99.99,,,0.09,0.000000,,2013-02-09 12:21:00,
2013-02-09 03:32:00,28.0,22.0,-100.00,NNE,13,5.0,16.0,77,-99.99,,,0.09,0.000000,,2013-02-09 12:32:00,
2013-02-09 03:42:00,28.0,22.0,-100.00,NNE,13,5.0,16.0,77,-99.99,,,0.09,0.000000,,2013-02-09 12:42:00,
2013-02-09 03:52:00,28.0,22.0,-100.00,NNE,13,5.0,16.0,77,-99.99,,,0.09,0.000000,,2013-02-09 12:52:00,
2013-02-09 04:21:00,27.0,24.0,-100.00,North,353,7.0,25.0,89,0.01,,,0.10,0.000000,,2013-02-09 13:21:00,
2013-02-09 04:32:00,27.0,24.0,-100.00,North,353,7.0,25.0,89,0.01,,,0.10,0.000000,,2013-02-09 13:32:00,
2013-02-09 04:42:00,27.0,24.0,-100.00,North,353,7.0,25.0,89,0.01,,,0.10,0.000000,,2013-02-09 13:42:00,
2013-02-09 04:51:00,27.0,24.0,-100.00,North,353,7.0,25.0,89,0.01,,,0.10,0.000000,,2013-02-09 13:51:00,
2013-02-09 05:21:00,31.0,24.0,-100.00,SE,127,7.0,26.0,76,0.00,,,0.10,0.000000,,2013-02-09 14:21:00,
2013-02-09 05:31:00,31.0,24.0,-100.00,SE,127,7.0,26.0,76,0.00,,,0.10,0.000000,,2013-02-09 14:31:00,
2013-02-09 05:41:00,31.0,24.0,-100.00,SE,127,7.0,26.0,76,0.00,,,0.10,0.000000,,2013-02-09 14:41:00,
2013-02-09 05:52:00,31.0,24.0,-100.00,SE,127,7.0,26.0,76,0.00,,,0.10,0.000000,,2013-02-09 14:52:00,
2013-02-09 06:21:00,26.0,19.0,-100.00,NNW,335,7.0,18.0,76,0.00,,,0.10,0.000000,,2013-02-09 15:21:00,
2013-02-09 06:31:00,26.0,19.0,-100.00,NNW,335,7.0,18.0,76,0.00,,,0.10,0.000000,,2013-02-09 15:31:00,
2013-02-09 06:41:00,26.0,19.0,-100.00,NNW,335,7.0,18.0,76,0.00,,,0.10,0.000000,,2013-02-09 15:41:00,
2013-02-09 06:51:00,26.0,19.0,-100.00,NNW,335,7.0,18.0,76,0.00,,,0.10,0.000000,,2013-02-09 15:51:00,
2013-02-09 07:22:00,35.0,28.0,-100.00,SSE,147,11.0,32.0,74,0.00,,,0.10,0.000000,,2013-02-09 16:22:00,
2013-02-09 08:21:00,29.0,20.0,-100.00,East,81,8.0,34.0,68,0.01,,,0.11,0.000000,,2013-02-09 17:21:00,
2013-02-09 08:32:00,29.0,20.0,-100.00,East,81,8.0,34.0,68,0.01,,,0.11,0.000000,,2013-02-09 17:32:00,
2013-02-09 08:41:00,29.0,20.0,-100.00,East,81,8.0,34.0,68,0.01,,,0.11,0.000000,,2013-02-09 17:41:00,
2013-02-09 08:52:00,29.0,20.0,-100.00,East,81,8.0,34.0,68,0.01,,,0.11,0.000000,,2013-02-09 17:52:00,
2013-02-09 09:23:00,34.0,28.0,-100.00,West,270,12.0,35.0,80,0.00,,,0.11,0.000000,,2013-02-09 18:23:00,
2013-02-09 09:32:00,34.0,28.0,-100.00,West,270,12.0,35.0,80,0.00,,,0.11,0.000000,,2013-02-09 18:32:00,
2013-02-09 09:41:00,34.0,28.0,-100.00,West,270,12.0,35.0,80,0.00,,,0.11,0.000000,,2013-02-09 18:41:00,
2013-02-09 09:51:00,34.0,28.0,-100.00,West,270,12.0,35.0,80,0.00,,,0.11,0.000000,,2013-02-09 18:51:00,
2013-02-09 10:22:00,30.0,24.0,-100.00,NE,56,5.0,25.0,77,0.00,,,0.11,9.000000,,2013-02-09 19:22:00,
2013-02-09 10:31:00,30.0,24.0,-100.00,NE,56,5.0,25.0,77,0.00,,,0.11,9.000000,,2013-02-09 19:31:00,
2013-02-09 10:41:00,30.0,24.0,-100.00,NE,56,5.0,25.0,77,0.00,,,0.11,9.000000,,2013-02-09 19:41:00,
2013-02-09 10:52:00,30.0,24.0,-100.00,NE,56,5.0,25.0,77,0.00,,,0.11,9.000000,,2013-02-09 19:52:00,
2013-02-09 11:21:00,30.0,20.0,-100.00,NNW,328,9.0,21.0,67,0.00,,,0.11,35.000000,,2013-02-09 20:21:00,
2013-02-09 11:31:00,30.0,20.0,-100.00,NNW,328,9.0,21.0,67,0.00,,,0.11,35.000000,,2013-02-09 20:31:00,
2013-02-09 11:41:00,30.0,20.0,-100.00,NNW,328,9.0,21.0,67,0.00,,,0.11,35.000000,,2013-02-09 20:41:00,
2013-02-09 11:52:00,30.0,20.0,-100.00,NNW,328,9.0,21.0,67,0.00,,,0.11,35.000000,,2013-02-09 20:52:00,
2013-02-09 12:21:00,40.0,23.0,-100.00,East,87,9.0,31.0,50,0.02,,,0.13,180.000000,,2013-02-09 21:21:00,
2013-02-09 12:31:00,40.0,23.0,-100.00,East,87,9.0,31.0,50,0.02,,,0.13,180.000000,,2013-02-09 21:31:00,
2013-02-09 12:41:00,40.0,23.0,-100.00,East,87,9.0,31.0,50,0.02,,,0.13,180.000000,,2013-02-09 21:41:00,
2013-02-09 12:52:00,40.0,23.0,-100.00,East,87,9.0,31.0,50,0.02,,,0.13,180.000000,,2013-02-09 21:52:00,
2013-02-09 13:21:00,40.0,23.0,-100.00,NW,306,8.0,29.0,51,0.02,,,0.14,259.000000,,2013-02-09 22:21:00,
2013-02-09 13:31:00,40.0,23.0,-100.00,NW,306,8.0,29.0,51,0.02,,,0.14,259.000000,,2013-02-09 22:31:00,
2013-02-09 13:41:00,40.0,23.0,-100.00,NW,306,8.0,29.0,51,0.02,,,0.14,259.000000,,2013-02-09 22:41:00,
2013-02-09 13:51:00,40.0,23.0,-100.00,NW,306,8.0,29.0,51,0.02,,,0.14,259.000000,,2013-02-09 22:51:00,
2013-02-09 14:21:00,42.0,26.0,-100.00,SW,214,6.0,19.0,52,0.00,,,0.13,274.000000,,2013-02-09 23:21:00,
2013-02-09 14:31:00,42.0,26.0,-100.00,SW,214,6.0,19.0,52,0.00,,,0.13,274.000000,,2013-02-09 23:31:00,
2013-02-09 14:41:00,42.0,26.0,-100.00,SW,214,6.0,19.0,52,0.00,,,0.13,274.000000,,2013-02-09 23:41:00,
2013-02-09 14:52:00,42.0,26.0,-100.00,SW,214,6.0,19.0,52,0.00,,,0.13,274.000000,,2013-02-09 23:52:00,
2013-02-09 15:21:00,40.0,22.0,-100.00,SE,135,7.0,25.0,48,0.00,,,0.12,207.000000,,2013-02-10 00:21:00,
2013-02-09 15:32:00,40.0,22.0,-100.00,SE,135,7.0,25.0,48,0.00,,,0.12,207.000000,,2013-02-10 00:32:00,
2013-02-09 15:41:00,40.0,22.0,-100.00,SE,135,7.0,25.0,48,0.00,,,0.12,207.000000,,2013-02-10 00:41:00,
2013-02-09 15:51:00,40.0,22.0,-100.00,SE,135,7.0,25.0,48,0.00,,,0.12,207.000000,,2013-02-10 00:51:00,
2013-02-09 16:21:00,38.0,22.0,-100.00,SSE,151,14.0,29.0,53,0.00,,,0.11,156.000000,,2013-02-10 01:21:00,
2013-02-09 16:31:00,38.0,22.0,-100.00,SSE,151,14.0,29.0,53,0.00,,,0.11,156.000000,,2013-02-10 01:31:00,
2013-02-09 16:41:00,38.0,22.0,-100.00,SSE,151,14.0,29.0,53,0.00,,,0.11,156.000000,,2013-02-10 01:41:00,
2013-02-09 16:51:00,38.0,22.0,-100.00,SSE,151,14.0,29.0,53,0.00,,,0.11,156.000000,,2013-02-10 01:51:00,
2013-02-09 17:22:00,39.0,24.0,-100.00,West,268,5.0,32.0,54,0.00,,,0.11,80.000000,,2013-02-10 02:22:00,
2013-02-09 17:31:00,39.0,24.0,-100.00,West,268,5.0,32.0,54,0.00,,,0.11,80.000000,,2013-02-10 02:31:00,
2013-02-09 17:41:00,39.0,24.0,-100.00,West,268,5.0,32.0,54,0.00,,,0.11,80.000000,,2013-02-10 02:41:00,
2013-02-09 17:52:00,39.0,24.0,-100.00,West,268,5.0,32.0,54,0.00,,,0.11,80.000000,,2013-02-10 02:52:00,
2013-02-09 18:21:00,38.0,22.0,-100.00,ESE,123,12.0,24.0,53,0.00,,,0.11,10.000000,,2013-02-10 03:21:00,
2013-02-09 18:32:00,38.0,22.0,-100.00,ESE,123,12.0,24.0,53,0.00,,,0.11,10.000000,,2013-02-10 03:32:00,
2013-02-09 18:41:00,38.0,22.0,-100.00,ESE,123,12.0,24.0,53,0.00,,,0.11,10.000000,,2013-02-10 03:41:00,
2013-02-09 18:51:00,38.0,22.0,-100.00,ESE,123,12.0,24.0,53,0.00,,,0.11,10.000000,,2013-02-10 03:51:00,
2013-02-09 19:21:00,39.0,23.0,-100.00,SSE,156,13.0,28.0,52,0.00,,,0.11,0.000000,,2013-02-10 04:21:00,
2013-02-09 19:32:00,39.0,23.0,-100.00,SSE,156,13.0,28.0,52,0.00,,,0.11,0.000000,,2013-02-10 04:32:00,
2013-02-09 19:41:00,39.0,23.0,-100.00,SSE,156,13.0,28.0,52,0.00,,,0.11,0.000000,,2013-02-10 04:41:00,
2013-02-09 19:51:00,39.0,23.0,-100.00,SSE,156,13.0,28.0,52,0.00,,,0.11,0.000000,,2013-02-10 04:51:00,
2013-02-09 20:22:00,41.0,23.0,-100.00,East,98,12.0,32.0,49,0.00,,,0.11,0.000000,,2013-02-10 05:22:00,
2013-02-09 20:31:00,41.0,23.0,-100.00,East,98,12.0,32.0,49,0.00,,,0.11,0.000000,,2013-02-10 05:31:00,
2013-02-09 20:41:00,41.0,23.0,-100.00,East,98,12.0,32.0,49,0.00,,,0.11,0.000000,,2013-02-10 05:41:00,
2013-02-09 20:52:00,41.0,23.0,-100.00,East,98,12.0,32.0,49,0.00,,,0.11,0.000000,,2013-02-10 05:52:00,
2013-02-09 21:21:00,40.0,24.0,-100.00,ESE,106,9.0,24.0,52,0.00,,,0.10,0.000000,,2013-02-10 06:21:00,
2013-02-09 21:32:00,40.0,24.0,-100.00,ESE,106,9.0,24.0,52,0.00,,,0.10,0.000000,,2013-02-10 06:32:00,
2013-02-09 21:42:00,40.0,24.0,-100.00,ESE,106,9.0,24.0,52,0.00,,,0.10,0.000000,,2013-02-10 06:42:00,
2013-02-09 21:51:00,40.0,24.0,-100.00,ESE,106,9.0,24.0,52,0.00,,,0.10,0.000000,,2013-02-10 06:51:00,
2013-02-09 22:21:00,35.0,24.0,-100.00,North,7,5.0,16.0,65,0.00,,,0.10,0.000000,,2013-02-10 07:21:00,
2013-02-09 22:31:00,35.0,24.0,-100.00,North,7,5.0,16.0,65,0.00,,,0.10,0.000000,,2013-02-10 07:31:00,
2013-02-09 22:41:00,35.0,24.0,-100.00,North,7,5.0,16.0,65,0.00,,,0.10,0.000000,,2013-02-10 07:41:00,
2013-02-09 22:51:00,35.0,24.0,-100.00,North,7,5.0,16.0,65,0.00,,,0.10,0.000000,,2013-02-10 07:51:00,
2013-02-09 23:21:00,40.0,28.0,-100.00,SE,143,10.0,22.0,61,0.00,,,0.10,0.000000,,2013-02-10 08:21:00,
2013-02-09 23:32:00,40.0,28.0,-100.00,SE,143,10.0,22.0,61,0.00,,,0.10,0.000000,,2013-02-10 08:32:00,
2013-02-09 23:43:00,40.0,28.0,-100.00,SE,143,10.0,22.0,61,0.00,,,0.10,0.000000,,2013-02-10 08:43:00,
2013-02-09 23:52:00,40.0,28.0,-100.00,SE,143,10.0,22.0,61,0.00,,,0.10,0.000000,,2013-02-10 08:52:00,